• In Kazakhstan
  • List of Countries
  • For 7 days
  • Water Temperature
  • Weather Map
  • News
  • Weather Widgets
  • user-avatar
    Login

    Hourly Weather Molepolole

    Today, 8 December, Sunday

    Time Temperature Precipitation Wind Pressure Humidity
    00:00 +19°C° 0.2 mm 4 mps 660 mmHg 94%
    01:00 +19°C° 0.2 mm 3 mps 660 mmHg 94%
    02:00 +19°C° 0 mm 3 mps 660 mmHg 94%
    03:00 +19°C° 0 mm 3 mps 660 mmHg 94%
    04:00 +19°C° 0 mm 4 mps 659 mmHg 93%
    05:00 +19°C° 0 mm 4 mps 659 mmHg 93%
    06:00 +20°C° 0 mm 4 mps 660 mmHg 90%
    07:00 +20°C° 0 mm 5 mps 660 mmHg 87%
    08:00 +21°C° 0 mm 5 mps 661 mmHg 86%
    09:00 +22°C° 0.1 mm 5 mps 661 mmHg 80%
    10:00 +25°C° 0.1 mm 5 mps 661 mmHg 74%
    11:00 +26°C° 0.1 mm 5 mps 661 mmHg 68%
    12:00 +27°C° 0.8 mm 4 mps 661 mmHg 63%
    13:00 +28°C° 0.8 mm 4 mps 660 mmHg 58%
    14:00 +28°C° 0 mm 3 mps 660 mmHg 54%
    15:00 +28°C° 0.6 mm 3 mps 660 mmHg 56%
    16:00 +27°C° 0.6 mm 2 mps 659 mmHg 59%
    17:00 +27°C° 0.6 mm 2 mps 659 mmHg 62%
    18:00 +26°C° 0.5 mm 3 mps 659 mmHg 67%
    19:00 +25°C° 0.5 mm 3 mps 659 mmHg 73%
    20:00 +22°C° 0.5 mm 3 mps 659 mmHg 78%
    21:00 +22°C° 0.5 mm 3 mps 659 mmHg 82%
    22:00 +21°C° 0.5 mm 2 mps 659 mmHg 85%
    23:00 +20°C° 0.5 mm 2 mps 660 mmHg 89%

    Tomorrow, 9 December, Monday

    Time Temperature Precipitation Wind Pressure Humidity
    00:00 +20°C° 0.8 mm 2 mps 659 mmHg 89%
    01:00 +20°C° 0.8 mm 2 mps 659 mmHg 90%
    02:00 +21°C° 0.8 mm 1 mps 659 mmHg 91%
    03:00 +20°C° 0.5 mm 2 mps 659 mmHg 92%
    04:00 +20°C° 0.5 mm 2 mps 659 mmHg 92%
    05:00 +19°C° 0.5 mm 3 mps 659 mmHg 93%
    06:00 +21°C° 0.9 mm 4 mps 660 mmHg 87%
    07:00 +22°C° 0.9 mm 6 mps 660 mmHg 81%
    08:00 +23°C° 0.9 mm 7 mps 661 mmHg 75%
    09:00 +24°C° 1 mm 7 mps 661 mmHg 69%
    10:00 +27°C° 1 mm 6 mps 661 mmHg 63%
    11:00 +28°C° 1 mm 6 mps 661 mmHg 56%
    12:00 +28°C° 1 mm 6 mps 661 mmHg 55%
    13:00 +29°C° 1 mm 5 mps 661 mmHg 53%
    14:00 +29°C° 1 mm 5 mps 660 mmHg 51%
    15:00 +27°C° 2.7 mm 6 mps 660 mmHg 61%
    16:00 +24°C° 2.7 mm 7 mps 659 mmHg 71%
    17:00 +22°C° 2.7 mm 8 mps 658 mmHg 80%
    18:00 +22°C° 2.2 mm 7 mps 659 mmHg 81%
    19:00 +21°C° 2.2 mm 5 mps 659 mmHg 82%
    20:00 +20°C° 2.2 mm 4 mps 660 mmHg 83%
    21:00 +20°C° 1 mm 4 mps 660 mmHg 84%
    22:00 +20°C° 1 mm 4 mps 661 mmHg 84%
    23:00 +20°C° 1 mm 3 mps 661 mmHg 84%

    Day after tomorrow, 10 December, Tuesday

    Time Temperature Precipitation Wind Pressure Humidity
    00:00 +20°C° 0.8 mm 4 mps 661 mmHg 85%
    01:00 +20°C° 0.8 mm 4 mps 660 mmHg 86%
    02:00 +20°C° 0.8 mm 5 mps 660 mmHg 87%
    03:00 +19°C° 0.2 mm 4 mps 660 mmHg 88%
    04:00 +19°C° 0.2 mm 4 mps 660 mmHg 89%
    05:00 +19°C° 0.2 mm 3 mps 660 mmHg 90%
    06:00 +20°C° 0.1 mm 4 mps 661 mmHg 85%
    07:00 +21°C° 0.1 mm 4 mps 661 mmHg 81%
    08:00 +22°C° 0.1 mm 5 mps 662 mmHg 77%
    09:00 +23°C° 0.2 mm 4 mps 662 mmHg 70%
    10:00 +25°C° 0.2 mm 4 mps 662 mmHg 63%
    11:00 +27°C° 0.2 mm 4 mps 663 mmHg 56%
    12:00 +27°C° 1.9 mm 3 mps 662 mmHg 55%
    13:00 +27°C° 1.9 mm 3 mps 661 mmHg 53%
    14:00 +27°C° 1.9 mm 3 mps 661 mmHg 51%
    15:00 +27°C° 0.4 mm 3 mps 661 mmHg 53%
    16:00 +26°C° 0.4 mm 3 mps 660 mmHg 55%
    17:00 +26°C° 0.4 mm 4 mps 660 mmHg 57%
    18:00 +23°C° 0.6 mm 4 mps 660 mmHg 64%
    19:00 +22°C° 0.6 mm 4 mps 660 mmHg 70%
    20:00 +21°C° 0.6 mm 5 mps 660 mmHg 77%
    21:00 +20°C° 0.4 mm 4 mps 661 mmHg 79%
    22:00 +20°C° 0.4 mm 3 mps 661 mmHg 81%
    23:00 +19°C° 0.4 mm 3 mps 661 mmHg 83%

    11 December, Wednesday

    Time Temperature Precipitation Wind Pressure Humidity
    00:00 +19°C° 0 mm 3 mps 661 mmHg 84%
    01:00 +18°C° 0 mm 2 mps 660 mmHg 86%
    02:00 +18°C° 0 mm 2 mps 660 mmHg 87%
    03:00 +18°C° 0 mm 2 mps 660 mmHg 87%
    04:00 +17°C° 0 mm 2 mps 660 mmHg 87%
    05:00 +18°C° 0 mm 1 mps 660 mmHg 86%
    06:00 +19°C° 0 mm 1 mps 661 mmHg 80%
    07:00 +21°C° 0 mm 1 mps 661 mmHg 73%
    08:00 +22°C° 0 mm 1 mps 662 mmHg 67%
    09:00 +24°C° 0 mm 2 mps 662 mmHg 57%
    10:00 +27°C° 0 mm 2 mps 662 mmHg 48%
    11:00 +29°C° 0 mm 2 mps 663 mmHg 39%
    12:00 +30°C° 0 mm 3 mps 662 mmHg 34%
    13:00 +33°C° 0 mm 4 mps 662 mmHg 29%
    14:00 +34°C° 0 mm 5 mps 662 mmHg 23%
    15:00 +34°C° 0 mm 5 mps 661 mmHg 24%
    16:00 +33°C° 0 mm 5 mps 661 mmHg 24%
    17:00 +33°C° 0 mm 5 mps 661 mmHg 24%
    18:00 +32°C° 0 mm 4 mps 661 mmHg 28%
    19:00 +29°C° 0 mm 3 mps 661 mmHg 32%
    20:00 +27°C° 0 mm 2 mps 660 mmHg 36%
    21:00 +27°C° 0 mm 2 mps 661 mmHg 36%
    22:00 +26°C° 0 mm 2 mps 661 mmHg 36%
    23:00 +25°C° 0 mm 2 mps 661 mmHg 37%

    12 December, Thursday

    Time Temperature Precipitation Wind Pressure Humidity
    00:00 +25°C° 0 mm 2 mps 661 mmHg 38%
    01:00 +24°C° 0 mm 2 mps 660 mmHg 39%
    02:00 +24°C° 0 mm 2 mps 660 mmHg 40%
    03:00 +23°C° 0 mm 2 mps 660 mmHg 41%
    04:00 +23°C° 0 mm 2 mps 660 mmHg 42%
    05:00 +22°C° 0 mm 1 mps 660 mmHg 43%
    06:00 +24°C° 0 mm 1 mps 661 mmHg 42%
    07:00 +25°C° 0 mm 2 mps 661 mmHg 41%
    08:00 +27°C° 0 mm 2 mps 662 mmHg 40%
    09:00 +28°C° 0 mm 1 mps 662 mmHg 35%
    10:00 +30°C° 0 mm 1 mps 663 mmHg 31%
    11:00 +32°C° 0 mm 1 mps 663 mmHg 26%
    12:00 +33°C° 0 mm 1 mps 663 mmHg 23%
    13:00 +35°C° 0 mm 2 mps 662 mmHg 20%
    14:00 +36°C° 0 mm 2 mps 662 mmHg 17%
    15:00 +36°C° 0 mm 2 mps 662 mmHg 16%
    16:00 +36°C° 0 mm 3 mps 661 mmHg 16%
    17:00 +36°C° 0 mm 3 mps 661 mmHg 15%
    18:00 +34°C° 0 mm 2 mps 661 mmHg 18%
    19:00 +31°C° 0 mm 2 mps 661 mmHg 21%
    20:00 +29°C° 0 mm 1 mps 661 mmHg 24%
    21:00 +28°C° 0 mm 1 mps 661 mmHg 26%
    22:00 +28°C° 0 mm 1 mps 662 mmHg 27%
    23:00 +27°C° 0 mm 1 mps 662 mmHg 29%

    13 December, Friday

    Time Temperature Precipitation Wind Pressure Humidity
    00:00 +26°C° 0 mm 1 mps 662 mmHg 32%
    01:00 +25°C° 0 mm 1 mps 661 mmHg 36%
    02:00 +24°C° 0 mm 2 mps 661 mmHg 40%
    03:00 +24°C° 0 mm 3 mps 661 mmHg 52%
    04:00 +22°C° 0 mm 4 mps 661 mmHg 63%
    05:00 +21°C° 0 mm 5 mps 661 mmHg 74%
    06:00 +22°C° 0 mm 5 mps 662 mmHg 74%
    07:00 +22°C° 0 mm 6 mps 662 mmHg 75%
    08:00 +23°C° 0 mm 6 mps 663 mmHg 75%
    09:00 +26°C° 0 mm 6 mps 663 mmHg 67%
    10:00 +28°C° 0 mm 6 mps 664 mmHg 59%
    11:00 +30°C° 0 mm 5 mps 664 mmHg 51%
    12:00 +32°C° 0 mm 4 mps 664 mmHg 43%
    13:00 +33°C° 0 mm 3 mps 663 mmHg 35%
    14:00 +35°C° 0 mm 3 mps 663 mmHg 28%
    15:00 +35°C° 0 mm 3 mps 662 mmHg 28%
    16:00 +35°C° 0 mm 3 mps 662 mmHg 27%
    17:00 +34°C° 0 mm 3 mps 662 mmHg 27%
    18:00 +31°C° 0 mm 3 mps 661 mmHg 35%
    19:00 +29°C° 0 mm 3 mps 661 mmHg 43%
    20:00 +27°C° 0 mm 3 mps 661 mmHg 51%
    21:00 +26°C° 0 mm 2 mps 661 mmHg 55%
    22:00 +25°C° 0 mm 2 mps 661 mmHg 58%
    23:00 +24°C° 0 mm 1 mps 662 mmHg 62%
    Show more